Location: Krakow
(50.0830°N, 19.9170°E)
Time: 16:07:50
(UTC+01:00)

Explorer 7 - All Passes

Search period start: 11 December 2023 00:00
Search period end: 21 December 2023 00:00
Orbit: 472 x 640 km, 50.3° (Epoch: 10 December)

Date Brightness Start Highest point End Pass type
(mag) Time Alt. Az. Time Alt. Az. Time Alt. Az.
11 Dec - 12:19:50 10° S 12:22:16 16° SE 12:24:41 10° E daylight
11 Dec - 13:57:56 10° WSW 14:01:38 55° SSE 14:05:16 10° E daylight
11 Dec - 15:37:44 10° W 15:41:29 85° N 15:45:10 10° E daylight
11 Dec - 17:17:41 10° W 17:21:21 63° SSW 17:25:00 10° ESE visible
11 Dec - 18:58:05 10° W 19:00:46 19° SW 19:03:29 10° S visible
12 Dec - 12:15:34 10° SSW 12:18:32 21° SE 12:21:25 10° E daylight
12 Dec - 13:54:15 10° WSW 13:58:01 67° SSE 14:01:41 10° E daylight
12 Dec - 15:34:10 10° W 15:37:53 86° N 15:41:35 10° E daylight
12 Dec - 17:14:07 10° W 17:17:42 52° SSW 17:21:19 10° SE visible
12 Dec - 18:54:55 10° WSW 18:57:00 14° SW 18:59:06 10° S visible
13 Dec - 12:11:29 10° SSW 12:14:48 27° SSE 12:18:01 10° E daylight
13 Dec - 13:50:36 10° WSW 13:54:23 77° SSE 13:58:05 10° E daylight
13 Dec - 15:30:34 10° W 15:34:18 89° N 15:37:59 10° E daylight
13 Dec - 17:10:33 10° W 17:14:03 42° SSW 17:17:33 10° SE visible
13 Dec - 18:52:23 10° WSW 18:53:12 11° SW 18:54:01 10° SSW visible
14 Dec - 12:07:32 10° SW 12:11:05 35° SSE 12:14:31 10° E daylight
14 Dec - 13:46:57 10° WSW 13:50:46 85° S 13:54:28 10° E daylight
14 Dec - 15:26:57 10° W 15:30:41 85° S 15:34:22 10° ESE daylight
14 Dec - 17:07:00 10° W 17:10:20 33° SSW 17:13:41 10° SE visible
15 Dec - 10:26:39 10° SSE 10:28:09 12° SE 10:29:37 10° ESE daylight
15 Dec - 12:03:40 10° SW 12:07:22 43° SSE 12:10:58 10° E daylight
15 Dec - 13:43:20 10° W 13:47:09 89° N 13:50:51 10° E daylight
15 Dec - 15:23:20 10° W 15:27:04 76° SSW 15:30:44 10° ESE daylight
15 Dec - 17:03:29 10° W 17:06:36 26° SSW 17:09:43 10° SSE visible
16 Dec - 10:21:52 10° S 10:24:20 16° SE 10:26:44 10° ESE daylight
16 Dec - 11:59:53 10° SW 12:03:41 54° SSE 12:07:22 10° E daylight
16 Dec - 13:39:42 10° W 13:43:31 86° N 13:47:14 10° E daylight
16 Dec - 15:19:42 10° W 15:23:24 66° SSW 15:27:03 10° ESE daylight
16 Dec - 17:00:04 10° W 17:02:50 20° SW 17:05:36 10° SSE visible
17 Dec - 10:17:30 10° SSW 10:20:32 21° SE 10:23:27 10° E daylight
17 Dec - 11:56:07 10° WSW 12:00:01 64° SSE 12:03:44 10° E daylight
17 Dec - 13:36:05 10° W 13:39:54 85° N 13:43:37 10° E daylight
17 Dec - 15:16:04 10° W 15:19:44 55° SSW 15:23:20 10° SE daylight
17 Dec - 16:56:48 10° WSW 16:59:02 15° SW 17:01:15 10° S visible
18 Dec - 10:13:21 10° SSW 10:16:45 27° SSE 10:20:02 10° E daylight
18 Dec - 11:52:26 10° WSW 11:56:20 75° SSE 12:00:06 10° E daylight
18 Dec - 13:32:26 10° W 13:36:16 88° N 13:39:58 10° E daylight
18 Dec - 15:12:26 10° W 15:16:01 44° SSW 15:19:32 10° SE daylight
18 Dec - 16:53:56 10° WSW 16:55:11 11° SW 16:56:26 10° SSW visible
19 Dec - 10:09:20 10° SW 10:12:59 34° SSE 10:16:30 10° E daylight
19 Dec - 11:48:44 10° WSW 11:52:40 84° SSE 11:56:27 10° E daylight
19 Dec - 13:28:47 10° W 13:32:36 87° S 13:36:20 10° E daylight
19 Dec - 15:08:50 10° W 15:12:17 35° SSW 15:15:40 10° SE daylight
20 Dec - 08:28:33 10° SSE 08:30:01 12° SE 08:31:26 10° ESE daylight
20 Dec - 10:05:24 10° SW 10:09:14 42° SSE 10:12:54 10° E daylight
20 Dec - 11:45:03 10° W 11:49:00 90° N 11:52:47 10° E daylight
20 Dec - 13:25:06 10° W 13:28:56 79° SSW 13:32:39 10° ESE daylight
20 Dec - 15:05:16 10° W 15:08:31 28° SSW 15:11:41 10° SSE daylight
